"Pseudo-MPEC" for 2018-038A = NORAD 43435 = TESS

Created 2018 Aug 25 2:06:55 UT using Find_Orb

Click here for an explanation of pseudo-MPECs

TLEs are available for this and other objects on these pages. For this particular object, we don't have much astrometry and can't compute a reliable ephemeris. However, JPL's Horizons system supplies ephemerides, to which I've fitted TLEs.

 
 Astrometry: 
     ZTF00Wo  C2018 08 24;9Astrometry79N,e!@cRo7l\DTNg(we^p^-EW[hhP[Yi0?Te_q=I41
     ZTF00Wo  C2018 08 24.cdjasN!p:_@Rl?/M.wXC0G-OVMhMjwj.AR'n(dtA+L3J\:23r0DI41
     ZTF00Wo  C2018 08 24t=M*j15mwhTX]4:!/redacted;[`[Heqcw+5a)cY0m#%ls[j5y#=I41
     ZTF00Wo  C2018 08 242xaHGsdWXS?a=xLd!RiHL$8Bm:Aq1u)06+1%Ot](9yEkKdF#Sn)XI41
     ZTF00Wo  C2018 08 24`KKUFvfBZP2e;ODj#\sp[ra`\a=j0GJL'YM$FI^P[#ldH6g*/]?\I41
     ZTF00Wo  C2018 08 24x%:BbJCdNJF.wJ.b^[e*FgAgq*Kjf#o+see=lGAi2p9XXj\fjDJcI41
     ZTF00Wo  C2018 08 24/QPmZrGGvp,mbSi,?9yQqj3]41anOptZB6[:]\jTh^puMofF7F4tI41
     ZTF00Wo  C2018 08 244y5)N,W.`yyA:\W*6yB-uIcji?je$TTXj],Pno6nn2bPiFANEOCPI41
2018-038A     CK180825:0130028  051.02842   +26.11240            17.1 Rq     J95
2018-038A     CK180825:0132541  051.07131   +26.10301            17.2 Rq     J95
2018-038A     CK180825:0136182  051.12222   +26.09179            17.1 Rq     J95
2018-038A     CK180825:0139103  051.16478   +26.08232            17.1 Rq     J95

Station data:
(I41) Palomar Mountain--ZTF  (N33.357340 W116.859780)  US/California. 1.2-m
   f/2.44 Oschin Schmidt + CCD.
(J95) Great Shefford  (N51.474969 W1.447003)  UK.  Observer P. Birtwhistle.

Orbital elements:  2018-038A
   Perigee 2018 Aug 22.991467 +/- 0.000479 TT = 23:47:42 (JD 2458353.491467)
Epoch 2018 Aug 25.0 TT = JDT 2458355.5                        Gray
M  51.155889 +/- 0.12               (J2000 equator)
n  25.469278167 +/- 0.0655          Peri.    1.342000 +/- 0.11
a246940.5522 +/- 423                Node   286.042601 +/- 0.00057
e   0.55237944 +/- 0.000171         Incl.   31.558542 +/- 0.00037
P  14.13d                  H 28.9   G  0.15   U 10.9
q 110535.6664 +/- 177    Q 383345.4381 +/- 676
From 12 observations 2018 Aug. 24-25 (17.7 hr); mean residual 0".544
Residuals in arcseconds: 
180824 I41 .467+ .938+    180824 I41 .774+ .299+    180825 J95 .108- .053+
180824 I41 .454- .850-    180824 I41 .134+ .195+    180825 J95 .021- .052-
180824 I41 1.09+ .333+    180824 I41 .078+ .300-    180825 J95 .238+ .086-
180824 I41 1.39- .593-    180824 I41 .753- .021-    180825 J95 .081- .030+

Ephemerides (geocentric):
Date (UTC)   RA              Dec         delta  elong  mag " sig PA
---- -- --  -------------   -----------  ------ -----  --- ---- ---
2018 08 25  03 13 54.485   +27 24 08.19  229252  98.0 17.7 1.24 142
2018 08 26  04 34 01.987   +20 31 19.68  286570  82.5 18.8 2.26 145
2018 08 27  05 25 16.135   +14 26 11.16  329392  72.2 19.6 12.1 112
2018 08 28  06 04 14.999   +09 05 28.44  359042  64.2 20.3 41.9 118
2018 08 29  06 37 32.756   +04 12 20.81  376659  57.6 20?? 89.4 120
2018 08 30  07 08 33.849   -00 27 13.50  382944  51.6 21??  160 121
2018 08 31  07 39 41.000   -05 04 54.57  378201  46.1 22??  264 121
2018 09 01  08 13 14.666   -09 51 40.68  362365  40.8 22??  422 119
2018 09 02  08 52 28.770   -14 59 02.59  335013  35.9 23??  680 117
2018 09 03  09 43 17.868   -20 38 01.95  295379  32.4 23?? 1145 113
2018 09 04  10 59 23.297   -26 42 23.87  242634  34.1 22?? 2127 105
2018 09 05  13 18 24.650   -30 22 18.54  178125  50.9 19?? 4749  88
2018 09 06  17 43 16.787   -11 23 33.34  122749 102.4 16.2 188'  62
2018 09 07  22 55 04.774   +26 25 19.80  144828 147.3 15.2 8442  74
2018 09 08  02 14 52.356   +29 09 26.95  210524 122.5 16.7 4091  99
2018 09 09  03 55 08.836   +23 11 36.27  269825 104.5 17.8 2524 110
2018 09 10  04 55 49.903   +17 07 47.29  315851  92.4 18.6 1872 115
2018 09 11  05 39 47.359   +11 40 59.99  348928  83.2 19.2 1575 118
2018 09 12  06 15 50.080   +06 42 10.96  369979  75.5 19.7 1459 119
2018 09 13  06 48 14.543   +01 58 50.66  379677  68.6 20.1 1464 120
2018 09 14  07 19 42.708   -02 40 17.99  378350  62.0 20.6 1578 120
2018 09 15  07 52 35.263   -07 26 02.43  365974  55.3 21?? 1822 120
2018 09 16  08 29 45.332   -12 29 58.31  342165  48.2 21?? 2268 118
2018 09 17  09 16 03.700   -18 04 57.75  306148  40.4 22?? 3094 115
2018 09 18  10 22 05.552   -24 17 55.43  256850  32.6 23?? 4803 109
2018 09 19  12 17 02.381   -29 54 00.52  194044  32.5 22?? 9175  96
2018 09 20  16 13 24.928   -21 14 24.98  128884  68.6 17.8 369'  68
2018 09 21  21 47 34.436   +21 20 07.45  128407 142.4 15.0 361'  68
2018 09 22  01 45 53.105   +29 46 48.91  193472 139.8 16.0 9619  96
2018 09 23  03 40 51.254   +23 59 42.31  256326 121.1 17.1 5520 108
2018 09 24  04 46 45.481   +17 42 56.65  305385 108.1 17.9 3911 114
2018 09 25  05 33 07.247   +12 06 52.85  340784  98.2 18.5 3173 117
2018 09 26  06 10 34.557   +07 02 26.36  363567  89.9 19.0 2838 118
2018 09 27  06 44 00.625   +02 15 33.46  374497  82.4 19.4 2745 119
2018 09 28  07 16 23.483   -02 26 16.97  373959  75.0 19.7 2849 119
2018 09 29  07 50 13.968   -07 14 49.23  361977  67.4 20.1 3167 118
2018 09 30  08 28 36.137   -12 22 25.09  338226  59.0 20?? 3796 117
2018 10 01  09 16 40.120   -18 02 20.23  302049  49.1 21?? 4995 114
2018 10 02  10 25 46.990   -24 19 33.14  252642  36.8 22?? 7494 108
2018 10 03  12 26 53.529   -29 40 37.65  190571  26.0 23?? 230'  94